Kingsville NAS, TX

4:45 PM CDT on April 24, 2017 (GMT -0500)
Kingsville Naval Air Station

Weather History for KNQI - July, 2013

Change the Weather History Date:

Monday, July 22, 2013

  Actual Average Record
Temperature  
Mean Temperature 88 °F -  
Max Temperature 96 °F 94 °F 100 °F (1997)
Min Temperature 80 °F 73 °F 71 °F (2008)
Cooling Degree Days 22    
Growing Degree Days 38 (Base 50)    
Moisture  
Dew Point 78 °F    
Average Humidity 79    
Maximum Humidity 94    
Minimum Humidity 56    
Precipitation  
Precipitation 0.00 in - - ()
Sea Level Pressure  
Sea Level Pressure 29.93 in    
Wind  
Wind Speed 13 mph (SSE)    
Max Wind Speed 24 mph    
Max Gust Speed 34 mph    
Visibility 10 miles    
Events      
Averages and records for this station are not official NWS values.
T = Trace of Precipitation, MM = Missing Value Source: NWS Daily Summary

Daily Weather History Graph

Daily Weather History Graph

Search for Another Location

Airport or City:

Trip Planner

Search our weather history database for the weather conditions in past years. The results will help you decide how hot, cold, wet, or windy it might be!

Date:

Astronomy

Jul. 22, 2013 Rise Set
Actual Time 6:49 AM CDT 8:25 PM CDT
Civil Twilight 6:23 AM CDT 8:51 PM CDT
Nautical Twilight 5:53 AM CDT 9:22 PM CDT
Astronomical Twilight 5:20 AM CDT 9:54 PM CDT
Moon 8:21 PM CDT (7/22) 6:41 AM CDT (7/22)
Length of Visible Light 14h 27m
Length of Day
13h 36m
Full, 100% of the Moon is Illuminated
Jul 22
Full
Jul 22
Full
Jul 29
Last Quarter
Aug 6
New
Aug 14
First Quarter

Hourly Weather History & Observations

Time (CDT) Temp. Heat Index Dew Point Humidity Pressure Visibility Wind Dir Wind Speed Gust Speed Precip Events Conditions
12:56 AM 82.9 °F 93.8 °F 79.0 °F 88% 29.94 in 10.0 mi SSE 12.7 mph - N/A   Clear
1:56 AM 82.0 °F 91.6 °F 79.0 °F 90% 29.94 in 10.0 mi SSE 11.5 mph - N/A   Partly Cloudy
2:26 AM 82.4 °F 92.4 °F 78.8 °F 89% 29.94 in 10.0 mi SSE 9.2 mph - N/A   Mostly Cloudy
2:34 AM 82.4 °F 92.4 °F 78.8 °F 89% 29.94 in 10.0 mi SSE 9.2 mph - N/A   Scattered Clouds
2:56 AM 82.0 °F 91.6 °F 79.0 °F 90% 29.92 in 10.0 mi SSE 9.2 mph 18.4 mph N/A   Scattered Clouds
3:34 AM 82.4 °F 92.4 °F 78.8 °F 89% 29.92 in 10.0 mi SSE 10.4 mph - N/A   Mostly Cloudy
3:44 AM 82.4 °F 92.4 °F 78.8 °F 89% 29.92 in 10.0 mi SSE 12.7 mph - N/A   Scattered Clouds
3:56 AM 82.0 °F 91.0 °F 78.1 °F 88% 29.91 in 10.0 mi SSE 12.7 mph - N/A   Partly Cloudy
4:44 AM 82.4 °F 92.4 °F 78.8 °F 89% 29.92 in 10.0 mi South 8.1 mph - N/A   Mostly Cloudy
4:56 AM 81.0 °F 88.6 °F 78.1 °F 91% 29.91 in 10.0 mi South 8.1 mph - N/A   Mostly Cloudy
5:05 AM 80.6 °F 88.1 °F 78.8 °F 94% 29.92 in 10.0 mi South 8.1 mph - N/A   Scattered Clouds
5:56 AM 81.0 °F 88.6 °F 78.1 °F 91% 29.92 in 10.0 mi SSE 9.2 mph - N/A   Mostly Cloudy
6:18 AM 80.6 °F 88.1 °F 78.8 °F 94% 29.93 in 10.0 mi South 6.9 mph - N/A   Partly Cloudy
6:56 AM 80.1 °F 86.4 °F 78.1 °F 94% 29.94 in 10.0 mi SSE 5.8 mph - N/A   Scattered Clouds
7:56 AM 82.0 °F 91.0 °F 78.1 °F 88% 29.94 in 10.0 mi SSE 10.4 mph - N/A   Partly Cloudy
8:46 AM 84.2 °F 96.1 °F 78.8 °F 84% 29.97 in 10.0 mi SSE 9.2 mph - N/A   Mostly Cloudy
8:56 AM 84.9 °F 96.6 °F 78.1 °F 80% 29.96 in 10.0 mi SSE 13.8 mph - N/A   Mostly Cloudy
9:56 AM 90.0 °F 102.5 °F 77.0 °F 65% 29.97 in 10.0 mi SSE 16.1 mph 25.3 mph N/A   Mostly Cloudy
10:14 AM 89.6 °F 102.2 °F 77.0 °F 66% 29.98 in 10.0 mi South 17.3 mph - N/A   Scattered Clouds
10:56 AM 90.0 °F 100.2 °F 75.0 °F 61% 29.97 in 10.0 mi South 16.1 mph 26.5 mph N/A   Scattered Clouds
11:56 AM 91.0 °F 101.6 °F 75.0 °F 59% 29.96 in 10.0 mi SSE 16.1 mph 25.3 mph N/A   Scattered Clouds
12:56 PM 93.0 °F 105.3 °F 75.9 °F 57% 29.96 in 10.0 mi SSE 16.1 mph 24.2 mph N/A   Scattered Clouds
1:56 PM 95.0 °F 109.7 °F 77.0 °F 56% 29.94 in 10.0 mi SE 15.0 mph 24.2 mph N/A   Scattered Clouds
2:56 PM 93.9 °F 109.9 °F 78.1 °F 60% 29.92 in 10.0 mi SE 20.7 mph 25.3 mph N/A   Scattered Clouds
3:56 PM 93.9 °F 109.9 °F 78.1 °F 60% 29.90 in 10.0 mi SE 20.7 mph 28.8 mph N/A   Scattered Clouds
4:56 PM 93.0 °F 108.9 °F 78.1 °F 62% 29.88 in 10.0 mi SE 24.2 mph 33.4 mph N/A   Scattered Clouds
5:56 PM 91.9 °F 107.3 °F 78.1 °F 64% 29.87 in 10.0 mi SE 23.0 mph 34.5 mph N/A   Scattered Clouds
6:56 PM 89.1 °F 103.2 °F 78.1 °F 70% 29.88 in 10.0 mi SE 24.2 mph 31.1 mph N/A   Scattered Clouds
7:56 PM 87.1 °F 99.8 °F 78.1 °F 74% 29.89 in 10.0 mi SE 20.7 mph 28.8 mph N/A   Scattered Clouds
8:56 PM 84.9 °F 96.6 °F 78.1 °F 80% 29.92 in 10.0 mi SE 18.4 mph 24.2 mph N/A   Scattered Clouds
9:56 PM 84.0 °F 96.0 °F 79.0 °F 85% 29.94 in 10.0 mi SE 16.1 mph 23.0 mph N/A   Scattered Clouds
10:56 PM 84.0 °F 96.0 °F 79.0 °F 85% 29.96 in 10.0 mi SSE 17.3 mph 23.0 mph N/A   Scattered Clouds
11:56 PM 82.9 °F 93.8 °F 79.0 °F 88% 29.97 in 10.0 mi SSE 12.7 mph - N/A   Partly Cloudy